Theta_e
343 343 342 343 342 342 342 340 340 340 341 341 340 341 340 340 340 340 339 338 338 338 338 338 337 337 336 336 337 337 337 337 338 337 336 335 333 332 333 334 334 335 335 336 336 335 336 336 335 335 334 334 334 333 333 332 332 332 332 331 331 331 330 330 330 330 331 331 331 331 332 332 332 332 332 332 330 329 329 329 329 327 326 325 325
343 343 342 344 342 341 341 340 341 341 341 341 340 341 340 339 339 339 338 338 338 337 337 337 336 335 335 335 336 336 336 336 335 335 335 334 332 331 330 331 332 333 333 334 334 334 334 333 333 332 332 332 332 331 331 330 330 330 329 329 329 329 329 329 329 329 329 329 329 329 330 330 331 331 332 332 332 331 330 329 329 329 328 327 325
344 342 341 342 341 340 340 339 341 341 340 341 340 340 340 339 339 338 338 338 338 337 337 337 336 335 335 335 335 335 335 334 333 333 334 333 332 331 329 328 328 329 330 330 330 330 330 330 330 330 330 330 330 329 329 328 327 327 327 327 328 327 327 327 327 327 327 328 327 327 327 327 328 329 331 332 332 332 330 330 329 329 329 328 327
344 342 340 340 339 340 340 339 341 341 341 341 341 341 340 340 339 339 338 338 338 338 337 336 336 335 335 334 333 333 333 333 332 332 332 331 331 331 329 327 326 326 326 325 325 325 324 324 325 325 326 327 328 328 327 326 325 325 325 325 325 325 325 325 326 326 326 326 325 325 325 325 325 326 328 330 331 331 330 330 330 330 329 329 328
340 340 339 339 339 339 339 340 341 341 342 341 342 341 340 340 339 338 338 337 338 338 337 337 336 335 334 333 332 331 331 330 330 330 330 330 329 329 329 328 326 324 323 322 321 320 319 319 318 318 319 320 322 323 324 324 323 322 322 323 324 323 323 323 323 323 324 324 324 324 323 323 323 324 325 327 328 329 329 329 330 330 330 330 330
338 339 339 338 339 338 337 339 341 341 342 341 341 340 339 339 338 337 337 337 337 336 336 335 335 334 332 332 331 330 328 327 327 328 328 328 327 326 326 326 325 324 322 319 318 316 314 314 313 311 312 312 314 315 317 319 318 317 317 317 319 319 320 321 322 321 321 322 322 322 322 321 321 322 322 324 325 326 327 327 328 328 329 330 330
339 339 339 339 339 338 337 338 341 341 340 340 339 338 338 338 338 338 337 336 336 335 334 334 334 332 331 330 329 327 326 325 325 325 325 325 324 323 323 322 321 321 320 317 315 311 307 305 305 304 302 304 305 305 309 313 313 312 311 310 310 311 312 313 315 316 317 318 319 319 319 319 319 320 321 322 323 324 324 325 325 325 326 328 328
340 339 339 339 338 338 338 339 339 339 338 338 337 336 336 336 337 337 337 336 335 333 333 334 333 331 330 328 326 325 323 322 322 322 321 321 320 319 318 317 316 316 315 313 312 310 305 301 303 303 299 297 298 298 300 306 310 311 310 309 309 309 307 306 308 309 310 311 312 313 313 313 313 315 318 320 321 321 322 322 323 324 324 325 327
341 340 339 339 338 338 338 338 338 337 337 336 335 334 334 335 335 335 335 335 334 332 332 333 332 329 328 326 324 322 321 320 319 318 318 317 316 314 314 312 312 311 311 310 309 309 308 305 306 307 303 297 296 297 296 299 304 307 308 307 309 310 309 308 309 309 309 309 309 308 306 306 306 307 310 314 317 319 319 320 321 322 323 323 324
341 341 340 338 338 338 337 337 336 336 335 334 334 333 333 334 335 334 333 333 333 332 332 333 330 328 326 324 322 320 318 317 316 316 315 314 313 312 311 310 310 310 309 309 308 308 308 307 307 308 307 301 297 297 297 297 298 301 302 301 303 308 309 309 311 311 310 309 310 308 305 303 303 302 302 305 310 314 315 317 318 319 321 321 322
340 340 339 337 337 337 336 335 335 334 334 333 333 333 333 333 332 333 332 331 331 331 332 332 329 326 325 323 321 318 317 315 315 314 313 312 311 311 310 309 309 309 309 308 308 307 307 307 307 307 307 305 301 300 300 298 296 299 301 299 301 306 308 308 310 311 310 310 310 310 308 307 306 304 302 301 304 307 310 311 313 315 317 319 320
339 337 336 336 336 335 334 333 333 333 332 333 333 332 332 332 331 331 331 330 329 330 331 330 327 324 323 322 320 318 316 314 313 312 311 310 310 310 310 309 309 308 308 308 307 307 306 306 306 306 306 306 305 303 303 302 297 297 300 298 299 304 307 307 308 310 310 311 311 310 310 310 309 307 305 305 305 307 308 307 307 308 310 313 317
336 335 335 334 334 333 333 332 331 330 330 331 330 330 330 330 330 329 330 331 329 329 330 328 326 324 323 322 319 317 316 314 312 310 310 309 309 309 309 309 309 308 308 307 307 306 305 305 305 305 306 306 306 305 305 304 299 295 297 296 297 298 301 302 305 308 309 310 310 310 310 309 310 309 308 307 306 308 310 308 307 306 305 305 308
334 333 333 332 332 332 332 330 330 329 329 330 329 329 329 329 330 328 328 329 329 329 329 328 326 326 325 324 321 318 315 313 311 310 309 308 308 309 309 308 308 307 308 307 306 305 305 305 305 305 306 306 306 306 306 305 301 299 298 296 295 296 296 297 299 302 305 307 307 308 308 307 309 309 309 307 304 307 310 310 309 308 307 304 301
331 331 331 331 330 330 330 329 328 328 328 329 328 328 328 328 329 327 325 325 326 327 329 329 329 328 326 325 324 322 318 313 310 309 308 308 308 308 309 308 307 306 307 306 306 305 305 305 305 305 306 306 306 306 306 305 303 304 304 298 294 295 295 295 296 297 300 303 305 304 302 303 305 306 307 308 306 307 309 309 309 309 309 307 303
329 330 330 330 329 329 328 327 327 326 327 327 327 326 327 327 328 327 325 324 323 323 325 328 329 328 328 327 326 326 323 317 310 309 308 307 307 308 308 308 307 307 306 305 306 306 305 305 305 306 306 306 306 305 306 305 304 305 305 301 295 294 295 294 295 295 296 301 303 302 300 301 303 302 301 303 306 308 308 308 308 308 308 308 307
329 329 329 328 327 327 326 326 325 325 325 325 325 326 326 326 325 326 325 323 321 320 320 321 323 323 324 327 328 327 325 319 314 312 309 308 308 307 308 308 308 307 305 304 304 305 305 305 305 306 306 305 305 305 305 305 304 303 305 302 295 293 294 294 294 294 297 301 301 300 301 304 304 303 301 300 304 308 308 307 308 307 307 308 308
327 328 328 327 325 325 325 325 323 323 324 324 324 325 325 324 323 323 322 321 319 317 315 314 316 316 316 318 321 324 323 319 317 314 309 308 308 307 307 307 308 307 305 304 304 304 305 305 305 305 305 305 304 304 304 303 303 303 303 302 296 293 293 294 294 294 296 298 298 299 303 305 305 305 304 304 305 308 307 307 307 307 307 307 307
327 327 327 325 324 324 323 322 321 321 321 322 322 322 321 321 321 320 320 320 319 315 313 312 312 312 312 312 313 317 320 320 319 314 310 309 309 308 307 305 306 307 305 304 304 305 305 305 305 304 304 305 304 304 304 303 303 303 303 302 298 294 293 294 294 295 296 296 297 301 304 305 305 305 304 305 306 307 307 306 307 306 306 306 306
327 326 324 324 324 323 322 320 319 319 319 320 320 320 319 318 318 318 319 321 320 317 314 311 310 310 311 311 311 312 314 316 316 315 315 314 311 309 308 306 306 305 305 304 304 305 305 304 304 304 303 304 304 303 303 303 303 303 304 302 298 294 294 295 295 295 295 295 296 299 302 303 304 304 304 305 306 306 306 306 306 306 306 306 306
325 324 323 323 322 321 319 318 318 317 317 318 318 317 317 315 315 316 316 317 317 316 314 313 312 312 312 312 312 310 310 312 312 313 314 314 312 310 310 310 309 306 305 305 304 305 305 305 304 304 303 303 303 303 303 302 302 303 303 301 297 295 295 296 296 296 296 296 296 297 299 300 301 303 304 305 305 305 305 305 305 305 306 306 306
324 323 323 322 321 319 318 317 317 315 315 315 314 314 313 313 313 313 313 314 314 314 314 314 314 314 313 314 313 312 311 311 311 311 311 311 310 309 309 311 311 308 306 305 305 306 306 305 304 304 303 303 303 302 302 302 302 302 302 299 297 297 297 297 298 298 297 297 297 297 297 298 300 303 304 304 304 305 304 304 304 304 304 305 305
323 322 322 321 320 318 317 316 316 315 314 313 312 310 310 310 311 311 311 312 312 312 312 312 312 312 312 312 312 312 312 311 311 310 311 311 311 309 307 308 309 309 307 306 306 306 305 304 303 303 303 302 302 302 302 302 302 301 300 299 298 297 297 299 300 299 299 298 298 297 297 298 301 302 303 303 303 303 303 303 303 303 303 303 303
323 322 321 320 319 318 316 316 315 315 313 312 310 309 309 309 309 310 311 311 312 312 312 311 311 310 310 310 310 310 310 310 310 310 310 310 310 310 308 307 308 308 307 307 307 305 304 303 302 302 302 302 301 301 301 301 301 300 300 299 298 298 299 300 300 300 300 299 299 298 297 298 300 301 301 302 301 302 302 302 302 301 301 300 301
322 322 320 319 318 317 316 315 315 313 312 311 309 309 309 308 309 309 310 311 311 312 312 311 310 309 309 309 308 308 308 308 309 309 309 309 309 310 309 308 309 307 306 306 306 304 303 302 302 302 301 301 301 301 301 301 301 300 300 300 299 299 300 300 300 300 300 299 299 298 298 298 299 300 300 300 300 300 300 299 299 299 299 300 300
322 321 320 318 317 317 316 314 313 312 311 309 308 308 308 308 308 308 308 309 310 310 310 310 310 309 309 308 308 307 308 308 307 307 308 308 308 308 309 309 309 307 305 305 304 304 303 301 302 302 301 301 301 301 301 301 301 301 300 300 300 301 301 300 300 300 299 299 298 298 298 298 298 298 299 299 299 298 298 298 299 299 299 300 300
322 321 319 317 317 316 314 313 312 311 309 308 308 308 307 307 308 308 307 308 308 309 309 309 309 308 308 307 307 307 307 307 306 306 306 306 306 306 307 308 309 307 306 306 305 304 303 302 302 302 301 301 301 301 301 300 301 301 300 300 301 301 300 301 301 300 299 299 299 299 299 299 299 298 298 298 298 297 298 299 299 299 299 299 299
321 319 318 317 316 314 313 312 311 310 309 308 307 307 307 307 307 307 306 307 307 307 308 308 308 307 307 307 306 306 306 306 306 306 306 305 305 305 305 305 307 307 306 306 306 305 303 302 303 302 301 301 301 301 301 301 302 301 300 301 301 301 301 301 300 299 299 300 300 300 299 299 299 299 298 298 298 298 299 299 299 298 298 298 298
320 318 317 316 315 314 313 312 311 310 308 307 307 307 307 307 307 307 307 307 307 307 307 307 307 306 306 306 305 305 305 305 305 305 306 305 304 304 304 304 305 306 306 306 307 306 304 303 303 302 301 301 301 301 301 301 301 300 300 300 301 301 301 300 300 300 300 300 300 300 300 300 299 299 298 298 298 299 299 298 297 297 298 298 298
319 317 316 316 315 314 312 311 311 309 308 307 307 307 307 307 307 307 306 306 306 306 306 306 306 306 306 305 305 305 305 305 305 305 305 305 304 304 304 304 304 305 306 306 306 305 304 303 303 302 302 301 301 301 301 301 301 300 300 301 301 301 301 300 301 301 301 301 300 300 300 299 299 299 298 298 298 298 298 297 297 297 297 297 297
318 316 316 315 314 313 312 311 310 309 308 307 307 307 307 307 307 306 306 306 306 306 306 305 305 305 305 305 305 305 305 305 304 304 304 304 304 304 303 304 304 304 305 305 305 305 304 303 303 302 302 302 301 301 301 301 301 300 301 301 301 301 301 301 301 301 301 301 300 300 300 299 299 299 299 298 298 298 297 297 297 297 297 297 296
317 316 316 315 313 313 312 311 310 309 308 307 307 307 307 307 306 306 306 306 306 306 305 305 305 305 305 305 305 305 305 304 304 304 303 303 304 303 303 304 304 303 304 303 304 304 304 303 303 303 302 302 302 301 301 301 301 301 301 301 301 301 301 301 301 301 301 300 300 300 300 299 299 299 299 299 298 298 297 297 297 297 296 296 296
316 316 315 314 313 312 311 310 310 309 308 307 307 307 307 307 306 306 305 305 305 305 304 304 304 304 304 304 304 304 304 304 304 304 304 304 304 303 303 303 304 303 303 302 303 303 303 303 303 303 303 302 302 302 301 301 301 301 301 301 301 301 301 301 301 301 300 300 300 300 300 300 300 300 299 299 298 298 298 297 297 296 296 296 296
315 315 314 314 313 312 311 310 309 308 308 308 307 307 307 307 306 305 305 305 305 305 305 304 304 304 304 304 303 304 304 304 304 303 304 304 304 303 303 303 303 303 302 302 303 303 304 303 303 303 302 302 302 302 301 301 301 301 301 300 301 301 301 301 300 300 300 300 300 300 300 300 300 300 299 299 298 298 297 297 297 296 296 296 296
314 314 314 313 312 311 310 309 309 308 308 308 307 307 307 306 306 306 306 305 305 305 304 304 303 303 304 304 304 304 305 305 304 303 303 304 304 303 303 303 303 302 302 302 303 303 303 303 302 302 302 301 302 301 301 301 301 300 300 300 301 301 300 300 300 300 301 300 300 300 300 301 300 300 299 299 298 298 297 297 296 296 296 296 296
314 314 313 313 311 311 310 309 309 308 308 308 307 307 306 306 306 306 306 305 305 305 305 304 303 304 304 304 304 305 305 305 304 303 303 303 303 304 303 302 302 302 302 302 303 302 302 302 302 302 301 301 301 301 301 301 300 300 300 301 300 300 300 300 300 300 301 301 301 300 301 301 300 300 299 299 298 298 297 297 296 296 296 296 296
314 313 312 312 311 311 310 309 308 308 308 307 306 306 306 306 306 306 305 305 305 305 304 304 304 304 304 304 304 304 305 305 304 303 302 302 303 303 303 302 302 301 301 302 302 301 301 301 301 301 301 301 301 301 301 300 300 300 300 300 300 299 299 300 300 300 301 301 301 301 301 301 300 300 299 299 298 297 297 297 297 296 296 297 297
313 313 312 311 311 310 310 309 308 308 308 307 306 305 305 306 306 305 306 305 305 304 304 304 304 304 304 304 304 304 304 304 303 301 301 301 302 302 302 301 300 300 300 301 300 300 300 300 300 300 300 300 300 301 300 299 299 300 300 299 299 299 299 300 300 300 301 301 301 301 301 300 300 300 299 298 298 297 297 297 297 297 297 297 297
313 312 311 311 310 310 309 308 308 308 307 306 306 305 305 306 306 306 306 306 305 304 304 304 304 304 304 304 304 303 302 302 302 300 299 299 300 301 300 299 299 299 299 299 299 299 299 299 300 300 300 300 300 300 299 299 299 299 299 298 299 299 299 300 300 300 301 301 301 300 300 300 300 299 299 298 298 298 298 297 297 297 297 297 297
311 310 310 310 309 309 309 308 308 308 307 307 306 306 306 306 306 306 306 306 305 305 305 304 304 304 304 304 303 301 299 298 297 297 296 296 298 299 298 298 298 298 298 299 298 299 299 299 299 299 299 300 300 299 299 299 299 298 298 298 299 299 299 299 300 301 301 301 300 300 301 300 300 299 298 298 298 298 298 297 297 297 297 297 297
310 309 310 309 309 309 309 309 309 308 307 307 306 306 306 306 306 306 306 306 305 305 305 304 304 304 304 304 301 297 295 294 294 294 295 295 296 297 296 296 296 297 297 298 298 298 298 298 299 299 299 299 299 299 298 298 298 298 297 298 299 299 299 300 300 301 301 300 300 301 301 300 299 298 298 297 297 297 297 297 297 297 297 297 296
309 309 308 308 309 309 308 308 308 307 307 307 306 306 306 306 306 306 306 306 305 305 305 305 304 304 305 303 299 296 296 297 297 297 298 297 297 296 296 295 296 296 297 297 297 297 297 298 298 299 299 299 299 298 298 298 297 297 297 298 299 299 299 300 300 301 300 300 300 301 300 299 298 298 297 297 296 296 296 296 297 296 296 296 296
307 307 307 307 307 307 307 308 307 306 307 307 306 305 305 305 306 306 306 306 306 306 305 305 305 305 305 304 301 300 300 299 299 300 299 299 299 298 297 297 297 296 296 297 297 296 296 297 298 298 298 298 298 297 297 297 296 297 298 298 299 299 299 300 301 301 300 300 300 300 300 299 298 297 297 296 296 295 295 296 296 295 295 295 295
307 306 306 306 306 306 307 308 307 307 307 307 306 304 304 305 306 306 306 306 306 306 305 306 306 305 305 304 303 303 301 298 299 301 300 299 300 299 299 300 299 297 297 297 297 296 296 297 297 298 298 297 297 297 297 297 296 297 298 298 298 299 299 300 300 300 300 299 300 300 299 298 298 297 296 295 295 295 295 295 295 295 294 294 294
308 307 307 306 306 306 307 306 307 307 307 307 306 304 303 304 305 305 306 306 305 306 306 306 306 305 305 304 303 303 302 300 300 300 299 299 300 300 301 302 302 300 299 298 298 297 296 297 298 298 297 297 297 297 297 297 297 297 298 298 298 298 299 300 300 300 300 299 300 300 299 298 298 297 296 295 294 294 294 294 294 294 294 293 294
307 307 307 306 306 306 306 306 307 308 308 307 305 302 301 303 304 304 305 305 305 305 306 306 305 304 304 304 304 303 302 303 301 297 296 298 299 301 303 303 303 302 301 300 300 298 297 298 298 298 298 298 298 297 297 297 297 297 297 297 298 298 299 299 299 300 300 299 300 299 299 298 297 296 296 295 294 294 294 294 293 293 293 293 294
305 304 304 304 304 305 306 307 307 307 308 307 304 299 299 301 303 304 304 305 305 306 306 305 304 304 304 303 303 302 302 303 300 295 294 296 298 301 303 302 302 303 302 302 301 299 298 298 298 298 298 298 298 298 297 297 297 297 297 297 298 298 299 299 299 300 300 299 299 299 299 298 297 296 296 295 294 293 293 293 293 293 293 293 293
303 302 301 302 303 305 306 307 307 308 308 306 302 299 298 299 301 302 303 305 305 305 304 304 304 305 304 302 302 302 302 303 300 295 293 295 297 301 303 302 302 303 302 302 300 298 297 297 297 298 298 299 299 298 297 296 296 296 296 297 298 298 299 300 300 300 300 299 300 299 298 298 297 296 295 295 294 293 293 293 292 292 292 292 292
302 302 301 302 303 305 306 307 308 308 307 304 301 299 299 299 299 300 302 304 304 303 303 304 304 304 303 301 302 302 302 303 300 295 294 295 298 301 302 301 302 303 302 301 299 297 297 297 297 298 299 299 299 298 297 297 296 296 296 297 298 298 299 300 300 299 299 300 300 299 299 298 297 296 295 295 294 294 293 293 292 292 292 292 293
303 302 302 303 305 306 306 307 308 308 306 303 300 300 300 299 299 300 302 302 301 302 304 304 304 304 302 300 301 302 303 302 298 295 294 295 297 300 301 301 302 302 300 299 297 297 297 298 299 300 300 300 299 299 298 297 296 296 296 297 298 298 299 299 299 299 299 299 300 299 299 298 297 295 295 294 294 294 293 293 293 292 292 292 293
303 303 304 305 306 306 306 307 307 307 304 302 300 300 300 300 300 300 301 300 301 302 304 303 303 303 301 297 296 298 300 299 295 295 295 295 296 298 299 301 301 300 298 297 297 297 298 299 300 300 300 300 299 299 298 297 297 297 297 298 298 298 298 298 298 299 299 299 299 299 299 298 296 295 295 294 294 294 293 293 293 292 292 292 293
Wind_Speed
4 5 5 5 4 4 4 4 3 3 3 1 1 1 0 1 0 1 1 0 0 1 2 2 2 2 3 3 4 4 4 3 4 7 8 9 8 7 7 6 6 5 5 6 6 7 7 9 10 10 12 12 12 11 11 11 11 12 12 12 13 14 13 14 14 14 14 14 14 13 14 14 14 15 14 14 14 13 12 13 12 12 12 11 11
5 5 5 5 5 5 5 5 4 4 3 2 2 1 1 1 1 1 1 1 1 2 2 3 3 2 3 4 4 4 4 3 4 6 7 7 6 7 9 8 7 5 4 4 4 4 4 5 7 9 12 13 12 12 12 11 11 13 14 12 13 15 14 14 15 14 15 15 15 15 14 16 15 14 14 15 15 14 13 13 13 12 13 13 13
5 5 6 7 7 6 5 5 5 4 4 3 2 2 2 2 2 3 3 2 2 2 3 3 3 3 3 4 5 4 4 4 4 4 5 6 7 7 9 10 9 7 5 4 4 5 4 5 5 5 8 11 12 13 13 12 11 12 14 11 10 14 15 15 15 15 15 16 17 17 16 17 18 16 15 14 15 16 15 14 14 14 14 15 14
5 6 6 6 7 6 5 5 5 5 4 4 3 2 2 2 3 2 2 2 2 3 3 3 4 4 5 5 5 5 5 5 6 5 4 4 6 6 6 9 10 10 9 7 6 7 7 7 7 7 7 7 8 10 13 14 12 10 11 10 10 12 13 13 14 14 13 15 18 18 16 17 19 18 16 15 14 14 14 15 16 17 17 16 15
7 7 4 4 3 3 4 6 5 5 5 4 4 3 2 2 2 2 2 2 2 3 3 3 3 5 6 6 6 6 6 6 6 6 6 5 5 4 5 7 9 10 11 11 9 9 9 10 10 10 10 8 6 7 9 11 12 10 9 9 10 11 12 12 12 12 10 12 16 18 16 16 17 18 17 17 16 15 14 13 15 16 18 17 16
6 6 2 3 2 0 1 6 6 5 5 4 3 2 2 2 2 2 2 2 2 3 3 3 3 4 6 6 6 6 6 7 6 6 6 6 7 6 6 6 7 8 11 12 11 10 10 10 11 11 10 10 9 9 9 10 12 14 12 10 10 11 12 12 13 13 12 12 15 17 17 16 16 16 17 17 17 17 17 15 13 13 14 15 16
4 5 3 2 4 3 1 5 6 5 5 5 4 2 2 3 3 3 3 2 2 2 2 3 4 5 5 5 5 5 5 7 6 7 7 7 7 7 7 7 7 7 8 10 11 13 12 11 11 13 12 11 10 10 10 12 13 15 15 14 13 13 13 13 13 14 14 15 15 16 18 18 17 16 15 16 17 17 17 17 15 14 14 13 14
3 4 5 3 4 4 2 4 6 6 6 5 3 3 2 2 3 4 3 2 1 1 2 4 5 4 4 4 4 5 6 6 7 7 7 7 7 7 8 8 8 7 8 8 9 12 13 13 13 14 14 13 11 11 11 12 14 15 16 16 16 16 15 15 15 15 16 16 16 17 19 19 19 18 16 15 16 18 18 17 16 15 15 14 15
2 2 4 4 4 5 4 5 6 5 5 4 3 3 3 3 3 4 4 3 2 1 2 5 5 4 4 4 4 5 6 7 7 7 7 7 7 7 7 8 8 8 8 8 8 8 11 14 14 14 15 14 13 13 12 12 14 15 16 16 17 18 17 17 17 18 18 17 17 18 20 20 20 19 18 17 16 17 18 18 17 17 16 15 16
1 1 2 4 5 5 5 6 5 5 4 3 2 2 3 3 3 3 4 3 2 1 2 6 6 4 4 4 5 6 6 6 7 7 7 7 7 7 7 7 7 7 7 7 8 8 8 10 11 12 14 16 15 15 14 15 15 15 16 16 17 18 18 18 18 18 19 19 19 19 19 20 21 21 20 18 18 17 17 18 18 18 18 17 17
3 3 3 4 5 5 5 5 4 4 3 1 1 1 2 2 2 2 2 2 1 1 2 7 7 5 5 5 5 7 7 7 7 7 7 7 6 6 6 6 7 7 7 7 7 8 8 8 8 8 11 15 17 17 16 18 17 16 18 18 18 18 18 18 18 19 19 19 19 19 19 20 20 22 21 20 19 18 18 19 19 19 18 18 18
4 4 4 4 4 4 4 4 3 3 2 1 1 2 2 2 2 1 1 1 2 3 6 9 8 7 6 5 6 7 7 8 7 7 6 6 5 5 5 5 6 6 6 6 6 7 8 8 8 8 8 11 14 15 14 16 17 16 17 18 18 18 18 19 19 19 20 20 20 20 19 19 20 21 21 21 20 19 19 20 21 20 20 19 18
5 4 5 4 4 3 3 4 3 2 2 1 1 2 1 1 1 0 1 3 3 4 9 12 9 7 6 4 5 6 7 7 7 7 6 5 5 5 5 5 5 5 5 5 5 5 6 7 8 8 8 7 9 10 10 12 15 14 15 17 17 17 17 18 18 19 19 20 20 20 20 20 20 20 21 21 20 19 19 20 21 21 22 21 20
5 4 4 3 3 2 2 2 2 1 1 1 1 1 1 2 2 2 1 3 3 4 7 9 8 9 8 5 4 4 5 6 6 6 5 5 5 4 4 4 4 4 3 3 4 5 5 6 7 7 7 7 7 7 7 9 14 15 16 18 18 17 17 17 17 18 18 19 20 21 21 21 21 21 20 20 20 20 19 19 20 20 21 21 20
5 4 3 3 2 1 1 1 1 1 2 2 1 1 2 3 3 3 3 4 4 3 2 3 5 6 9 6 4 4 3 5 6 5 6 6 5 4 4 3 4 3 2 3 3 3 4 5 6 7 7 7 7 7 6 8 12 13 14 18 21 20 19 18 17 17 18 19 20 20 21 21 22 22 22 21 20 20 19 19 19 20 20 21 20
5 3 2 2 1 1 1 1 1 1 1 2 2 2 3 3 3 3 3 4 5 2 1 2 3 2 4 5 6 6 3 5 7 5 6 6 5 4 3 2 3 2 2 3 2 2 3 4 5 6 7 7 7 7 6 7 10 11 10 16 22 22 20 19 18 18 18 18 19 20 20 21 22 23 23 23 21 20 20 19 19 20 20 20 20
5 2 0 1 1 1 0 1 1 2 2 3 4 4 4 4 3 3 1 2 4 4 1 1 1 2 3 3 3 3 1 8 8 4 5 5 5 4 2 2 1 1 2 3 3 3 2 3 4 5 6 6 7 7 7 7 9 10 9 14 22 24 21 20 19 18 18 19 20 20 20 20 21 22 22 23 22 21 21 20 19 20 20 21 21
4 2 1 2 1 1 1 3 3 4 4 4 5 5 5 5 4 3 3 3 4 4 3 3 2 4 4 4 2 2 2 8 8 4 5 4 4 4 2 2 1 1 1 2 3 4 3 3 4 4 5 6 6 7 7 8 9 10 10 14 22 25 22 20 19 19 18 19 20 20 21 21 22 22 23 23 22 22 22 21 21 20 20 21 21
2 1 1 1 1 2 3 4 4 5 5 5 6 6 5 5 5 4 4 3 2 3 4 4 4 5 5 5 4 4 4 1 2 2 5 5 5 4 3 2 1 1 0 1 2 2 3 4 4 4 5 6 7 7 8 9 10 11 12 16 23 26 23 20 19 19 18 19 20 21 22 22 23 24 24 23 23 22 22 23 22 22 21 21 21
1 1 1 1 2 3 3 4 5 5 6 6 7 7 6 6 6 6 5 4 3 3 4 4 4 5 5 5 5 5 5 5 4 2 1 4 6 5 5 4 1 1 1 2 2 2 3 4 5 4 6 6 7 8 9 10 11 11 12 16 24 27 24 21 20 20 20 20 22 22 23 24 24 25 25 24 24 24 23 23 23 23 22 22 22
2 3 3 2 2 4 4 5 6 6 7 8 8 8 8 8 8 7 7 6 6 5 5 4 4 4 4 4 5 5 5 6 5 4 4 0 4 4 6 6 5 4 2 1 2 2 2 4 5 5 6 7 7 8 9 10 13 12 12 18 26 28 26 23 22 22 22 23 24 25 26 26 26 26 25 25 25 25 25 25 24 23 23 23 23
4 4 4 3 3 4 5 6 6 7 8 9 9 9 9 10 10 9 9 8 8 7 6 6 5 5 4 3 3 3 3 4 4 4 4 3 1 2 4 5 5 6 5 2 3 4 3 4 5 5 7 7 7 9 10 11 13 13 16 23 27 28 28 26 23 24 25 25 26 28 29 29 27 27 27 26 26 26 26 26 26 25 24 24 25
5 5 5 5 4 5 6 7 7 8 8 9 9 9 9 10 10 11 11 10 9 9 9 8 7 6 6 6 5 5 4 4 5 4 4 3 2 1 0 2 2 4 6 4 4 4 3 4 5 5 7 8 8 10 11 13 14 15 20 24 26 28 28 26 24 26 26 27 27 28 30 30 28 27 28 27 27 27 27 27 27 26 25 25 25
6 6 5 6 5 6 7 7 8 8 8 9 9 9 9 9 10 10 10 10 9 9 9 8 7 7 8 7 6 6 6 5 5 5 5 4 3 2 2 2 2 0 3 6 5 2 1 4 5 5 7 8 10 11 12 14 14 17 21 23 26 28 27 25 25 27 27 28 29 30 32 31 28 27 28 28 29 28 28 28 28 28 27 26 25
7 7 6 7 7 7 7 7 8 8 9 9 10 10 10 10 10 10 10 9 9 9 9 8 8 7 7 7 6 6 7 6 6 6 5 5 5 4 3 2 2 3 1 3 3 1 3 6 5 5 7 9 11 12 13 14 16 18 21 24 27 27 24 25 26 27 28 30 31 32 33 33 30 28 28 28 28 29 30 30 30 29 29 27 26
7 7 8 8 8 8 8 9 9 9 10 10 10 10 10 11 10 10 10 9 10 10 9 8 8 7 7 7 7 7 7 6 6 7 7 7 7 6 5 3 1 3 3 1 3 3 5 8 7 6 8 10 12 13 14 16 18 19 23 26 26 24 24 26 27 28 30 32 34 34 33 32 30 29 29 29 29 31 32 31 29 29 29 29 29
8 8 9 10 9 9 9 10 10 10 10 10 10 10 11 10 10 10 10 10 10 10 9 8 8 8 8 8 8 7 7 7 7 7 8 8 7 7 7 4 1 2 3 3 4 4 6 10 8 7 10 12 13 14 16 18 19 20 24 25 24 24 25 26 28 31 34 35 35 33 31 31 31 31 31 31 32 33 31 30 30 30 31 31 31
8 9 11 11 11 10 11 11 10 10 10 10 10 10 10 10 10 10 10 10 10 9 8 8 8 9 9 8 8 7 7 7 7 8 8 8 7 7 8 7 4 3 3 3 4 5 7 10 10 9 11 14 15 16 18 19 19 21 25 24 24 26 26 27 32 35 36 34 32 31 32 33 33 32 31 32 32 30 28 29 31 32 32 32 32
9 11 12 12 11 11 12 11 11 11 10 10 10 10 10 10 10 10 9 9 8 8 7 7 8 8 8 8 7 6 6 6 7 7 6 6 7 7 7 8 7 5 3 3 4 5 8 11 11 12 13 15 16 18 19 19 20 23 25 26 26 26 27 31 36 36 34 33 32 33 33 33 32 31 31 31 31 30 30 32 34 33 31 31 31
11 13 14 13 13 12 12 12 11 11 10 10 11 10 10 10 10 9 9 8 8 7 7 7 8 8 8 7 7 6 6 6 6 6 6 5 5 6 6 6 7 6 5 5 4 6 10 12 12 14 16 17 18 19 20 19 21 23 25 26 26 26 31 35 35 33 32 33 32 32 33 33 32 33 33 34 34 34 35 36 35 33 31 30 30
13 15 15 14 13 13 12 12 12 11 11 11 11 10 10 10 9 9 8 8 7 7 7 7 7 7 7 6 6 5 5 5 4 4 5 5 5 5 5 5 6 6 7 7 5 6 10 12 14 15 17 18 19 19 20 20 20 23 25 26 26 28 32 32 31 31 31 32 32 33 34 34 35 37 37 37 36 36 36 35 34 32 31 31 31
15 16 15 15 14 14 13 13 12 12 12 11 10 10 10 9 9 8 8 8 8 8 7 7 7 6 6 5 5 4 3 3 3 3 4 5 5 5 5 5 5 6 7 8 7 9 12 13 15 16 17 18 19 19 20 20 21 23 24 26 27 29 30 29 30 30 31 32 33 34 35 36 39 40 38 36 35 35 35 34 33 33 33 33 32
16 16 15 15 15 14 14 13 13 12 12 11 11 10 10 9 9 9 8 8 8 8 7 7 7 6 6 6 6 5 4 3 3 3 4 4 4 4 5 5 5 6 7 9 9 11 13 14 15 17 17 17 18 19 20 21 22 23 24 26 27 28 28 29 30 30 31 32 34 35 37 38 39 38 36 36 35 34 34 33 33 33 34 34 34
16 15 15 15 14 14 14 13 13 12 12 11 11 10 10 10 9 9 8 8 8 8 8 7 7 6 6 6 5 4 3 3 3 4 5 4 4 5 5 5 6 7 7 9 10 12 14 16 16 17 16 17 18 19 20 21 22 23 25 27 27 26 27 29 31 31 30 31 34 36 36 37 37 37 38 38 37 35 34 33 33 34 35 35 35
15 15 15 15 14 14 14 13 13 12 12 11 10 10 10 10 10 9 8 8 8 8 7 7 7 6 6 5 4 3 2 2 3 4 5 5 4 5 6 6 6 7 8 9 10 12 14 16 17 17 17 17 18 19 20 20 22 23 25 27 27 27 29 30 31 30 29 32 34 34 34 36 38 39 40 40 39 39 37 35 35 35 35 36 36
15 15 14 14 15 14 14 14 13 13 12 11 11 11 11 11 10 9 9 8 8 7 7 7 7 6 5 4 3 2 2 2 3 4 5 6 5 5 6 7 7 8 9 10 11 12 14 16 17 17 17 18 18 19 20 20 22 24 25 26 27 29 30 30 30 29 29 31 32 32 33 36 39 40 41 41 41 39 38 37 36 34 34 34 35
15 15 15 15 15 14 14 14 14 13 12 12 12 12 12 11 10 10 9 9 8 7 7 7 6 5 5 4 3 2 2 2 3 4 6 6 6 5 7 8 8 9 10 11 12 13 14 16 17 17 17 17 18 19 20 21 24 25 24 24 27 30 31 30 28 28 28 30 30 32 33 35 39 41 41 41 40 39 38 37 35 33 32 32 31
15 15 15 14 14 14 14 14 14 13 12 12 12 12 12 12 11 11 10 9 9 8 7 7 6 5 4 4 3 2 2 2 3 5 6 7 6 6 7 8 9 10 11 12 12 13 14 15 16 17 17 17 18 18 19 22 25 25 25 26 27 28 29 30 30 27 27 28 31 33 34 37 40 41 39 38 39 39 38 36 34 32 31 31 30
15 15 14 13 13 13 13 13 13 12 12 12 12 12 12 12 11 11 11 10 9 8 7 7 6 5 5 4 3 2 3 3 3 5 6 7 6 6 7 8 10 11 12 12 13 13 14 14 15 16 17 17 17 18 20 22 23 23 25 28 29 28 27 29 30 29 27 28 31 34 36 38 40 40 39 38 38 37 36 35 34 33 32 31 28
15 15 14 13 12 12 12 12 12 12 12 12 12 12 12 12 12 11 11 11 10 9 8 7 6 5 5 4 3 3 2 2 3 4 6 7 7 7 7 9 10 10 11 12 12 13 13 14 15 15 16 17 17 18 21 22 21 22 25 27 29 31 30 28 29 29 28 28 32 36 37 38 39 39 39 37 36 36 36 36 35 33 30 27 23
15 14 14 13 12 11 11 10 10 10 10 10 12 13 13 12 12 11 11 10 10 9 8 8 7 6 6 5 4 3 2 3 4 5 7 8 8 8 7 8 9 10 10 11 12 13 13 14 15 15 16 17 18 20 21 21 22 24 27 27 28 30 31 30 28 27 26 29 34 37 38 38 39 39 38 36 36 36 36 35 32 30 30 29 29
16 15 16 15 12 12 13 12 11 11 9 10 13 15 14 13 12 11 11 10 9 9 9 8 8 7 6 6 5 1 2 3 3 5 7 8 9 9 8 8 8 8 9 11 12 12 14 14 15 16 16 17 18 20 20 21 22 24 27 27 28 29 30 29 27 25 26 30 33 34 36 38 38 39 39 37 37 37 35 34 32 32 35 36 35
17 18 19 19 16 16 16 15 16 16 13 13 15 17 16 15 13 10 10 10 9 8 8 8 8 7 7 7 5 2 2 3 5 6 8 9 10 11 10 9 8 7 8 10 11 12 13 14 15 16 16 17 19 20 20 21 23 24 26 27 27 29 29 26 25 25 28 30 28 27 31 35 35 38 41 39 39 39 36 35 35 36 37 36 36
19 20 21 21 19 18 15 15 16 15 13 13 16 18 17 16 14 10 9 9 8 8 8 8 8 7 7 6 4 3 2 1 3 5 7 9 10 12 12 11 10 9 8 8 9 10 12 14 15 16 16 18 20 20 20 22 24 25 26 27 27 28 28 27 26 28 32 33 27 21 26 33 36 39 42 40 39 39 38 37 37 36 36 37 36
18 18 18 18 18 16 15 15 15 14 13 14 16 19 20 18 15 10 8 8 8 7 8 7 6 6 7 6 5 5 4 2 2 3 6 8 10 12 12 12 11 11 10 10 9 10 12 14 15 16 17 18 20 20 22 23 25 26 26 27 28 28 28 29 30 32 35 33 25 18 21 30 35 37 39 39 38 39 38 36 37 38 38 37 35
18 17 16 16 16 15 15 15 15 14 14 14 16 19 21 20 17 11 5 6 8 7 7 6 5 5 6 6 5 5 3 2 1 4 6 7 9 10 10 10 10 10 11 10 8 10 14 14 15 17 18 18 20 22 24 25 25 26 27 29 31 30 30 31 32 33 33 30 25 18 17 25 30 31 35 38 37 38 38 37 38 38 36 36 34
18 16 15 15 15 15 15 15 15 14 14 15 16 19 21 20 20 13 4 4 8 7 6 6 6 6 6 5 5 4 2 3 3 5 7 8 9 9 9 9 9 10 10 8 9 13 16 15 15 18 19 20 22 25 28 28 27 28 29 30 31 31 30 31 31 29 29 29 26 18 14 21 27 29 34 38 36 35 37 37 38 37 35 36 35
16 15 15 16 16 16 16 15 15 14 14 15 17 20 19 19 20 15 5 4 7 6 6 7 7 7 7 6 6 4 3 4 5 6 6 8 8 8 10 10 10 10 9 9 13 18 19 19 19 20 21 23 26 27 29 30 30 31 32 29 28 28 28 29 28 28 30 29 24 19 17 20 26 29 32 35 36 35 35 36 38 38 36 36 34
17 16 16 16 16 16 16 16 15 13 13 17 20 20 19 18 18 14 7 6 7 7 8 8 8 8 8 7 6 4 3 4 5 5 6 8 8 9 10 11 11 11 10 12 16 19 20 21 21 22 22 24 25 26 27 28 29 31 30 27 26 28 27 24 23 27 33 29 23 23 21 20 27 34 30 31 34 34 34 38 42 40 36 34 32
17 16 16 16 15 16 16 16 15 13 13 18 21 20 19 18 17 13 9 8 8 8 8 9 8 8 9 10 9 5 2 4 4 3 5 8 9 9 11 11 11 11 12 14 18 19 19 20 20 20 21 22 23 23 23 25 27 28 26 25 26 28 26 24 24 27 31 28 24 27 24 20 29 38 33 28 28 29 34 41 44 40 35 32 31
16 15 15 14 14 15 15 14 14 13 13 19 22 20 20 20 18 14 10 8 9 9 8 9 9 8 8 11 12 9 6 5 4 2 4 7 8 9 11 11 11 11 14 17 19 19 20 20 19 20 20 20 20 20 21 23 25 26 25 25 26 26 25 27 28 25 22 22 27 32 26 20 27 36 34 25 17 23 38 45 42 38 36 34 32
Wind_Direction
198 201 193 196 192 179 178 170 148 126 122 85 93 111 315 118 186 159 117 26 47 7 325 317 325 326 344 19 21 17 36 49 76 89 91 88 68 51 53 54 62 75 84 91 88 82 75 62 53 48 47 42 35 30 26 26 27 23 22 23 25 24 20 17 10 4 359 351 345 337 336 331 317 309 303 303 308 309 305 304 308 311 310 307 303
204 208 195 194 192 180 174 158 139 123 121 101 73 50 13 46 21 24 52 39 32 9 336 324 324 348 6 26 43 36 37 45 71 94 102 98 74 38 29 29 32 48 71 80 87 85 85 73 61 59 56 48 39 31 30 31 27 25 28 26 26 28 25 23 17 10 7 1 356 352 350 348 337 324 310 298 298 304 308 305 300 301 305 304 304
209 220 209 197 188 177 169 152 132 116 109 100 77 51 35 24 28 29 21 20 16 358 345 341 341 10 33 32 40 47 47 46 51 77 97 100 103 71 29 22 20 20 34 44 61 63 59 55 45 51 56 53 48 34 26 24 16 16 23 23 23 26 24 25 23 15 9 2 358 354 349 351 349 341 332 314 297 293 301 304 301 297 294 296 300
210 220 232 217 185 167 161 142 121 113 100 88 74 57 50 23 29 36 23 22 17 3 3 8 0 6 34 50 49 47 53 58 55 64 71 74 108 104 45 33 27 17 19 21 32 37 34 33 24 19 25 39 49 38 27 21 13 6 10 11 14 20 15 15 18 13 6 359 356 352 347 351 352 348 348 343 323 308 304 298 300 301 294 291 294
199 195 255 264 194 160 148 129 111 103 92 80 73 60 55 32 23 30 28 26 24 24 23 29 36 28 31 44 51 47 54 64 61 63 64 49 58 76 70 55 33 17 13 7 13 23 22 23 21 19 17 17 22 26 23 12 3 359 358 354 353 358 358 357 358 360 358 353 352 350 349 351 351 350 353 358 358 353 341 317 303 301 296 290 286
192 177 268 289 165 135 115 111 100 93 83 69 67 65 54 28 10 15 15 19 36 41 36 27 39 50 41 38 46 47 54 64 67 68 67 62 52 49 56 46 30 25 17 6 3 8 13 14 14 15 14 14 15 16 18 9 0 2 6 0 352 350 351 349 345 346 347 346 347 344 344 346 346 348 349 352 359 4 1 349 332 317 311 302 289
185 170 175 196 145 127 75 84 89 86 74 61 58 56 41 21 13 17 4 11 41 25 32 46 37 42 44 42 47 51 60 63 63 67 66 68 64 55 50 37 31 33 28 21 9 2 6 14 14 13 12 11 12 15 20 19 13 11 12 10 7 1 354 351 347 346 344 340 342 337 334 336 338 342 343 340 341 348 355 356 350 340 336 335 325
198 175 156 160 146 128 106 76 81 76 61 50 42 37 19 7 17 22 8 353 24 12 37 67 61 44 41 49 52 52 64 66 60 62 62 63 64 58 54 47 41 37 34 33 20 3 3 14 18 12 11 15 17 18 21 22 22 20 17 15 15 11 5 2 357 354 350 344 342 338 335 336 335 335 337 335 331 331 337 343 345 343 339 342 347
212 185 137 137 139 128 117 87 73 61 54 42 31 22 3 359 7 15 7 333 314 354 79 96 88 68 58 59 62 60 64 66 63 63 62 60 58 56 54 49 46 43 39 36 33 17 4 9 13 4 4 14 22 23 24 23 22 21 20 18 18 16 12 10 5 1 359 354 350 344 340 339 337 335 333 334 330 325 328 330 330 334 336 333 336
129 100 101 116 121 113 97 75 55 42 44 39 42 27 1 3 353 351 354 338 327 339 103 117 111 103 92 70 63 68 68 66 65 63 61 60 56 55 55 52 49 47 44 39 35 32 20 11 8 358 353 3 16 19 20 21 19 18 17 14 15 14 12 10 8 5 1 358 356 351 344 342 340 338 335 334 332 328 328 324 318 320 324 327 327
109 97 91 96 98 89 72 57 37 29 26 356 16 8 344 345 332 328 333 1 33 302 121 119 117 109 102 83 67 69 69 66 65 64 62 59 57 57 57 56 53 48 46 44 36 32 32 23 14 5 351 355 7 12 14 13 13 16 14 11 12 12 9 8 6 3 1 358 357 355 350 347 344 340 339 337 335 334 330 322 315 312 312 317 319
113 99 88 80 76 67 58 46 23 20 22 347 328 333 328 303 300 315 269 124 115 175 134 115 113 109 104 89 71 70 72 70 68 67 65 61 58 56 55 55 54 51 46 43 41 34 31 27 22 18 6 358 2 10 14 6 6 15 13 9 9 8 5 4 3 0 358 356 354 353 350 349 347 343 340 340 338 339 336 327 321 317 312 310 310
113 96 83 71 68 58 37 27 13 10 19 359 322 309 299 260 240 226 208 148 138 166 132 121 130 133 126 110 90 82 77 78 75 71 68 64 62 58 56 54 49 52 50 45 42 37 34 30 23 19 16 11 2 7 17 3 1 12 14 10 7 4 2 359 358 356 354 352 350 349 347 346 345 342 340 340 339 340 339 334 330 325 317 311 308
110 102 91 70 61 43 2 356 354 338 324 315 322 293 242 199 181 156 131 132 165 185 140 142 172 168 155 155 139 115 86 83 81 77 78 69 67 64 59 59 52 48 47 49 45 36 36 28 23 20 12 14 5 0 10 1 357 4 8 8 7 3 360 357 354 352 350 347 345 344 342 341 341 339 338 337 336 337 338 336 333 329 323 317 312
115 100 86 61 36 19 356 343 323 304 271 248 259 223 177 168 173 155 129 130 157 199 170 188 226 191 177 191 174 158 137 116 102 87 86 74 69 64 55 56 53 51 42 39 41 29 33 25 17 17 9 6 3 357 356 353 354 357 354 357 3 1 357 356 353 351 348 344 341 338 335 335 335 333 332 333 333 333 332 332 332 329 326 323 318
110 88 69 35 4 354 337 311 290 279 211 196 167 143 144 147 152 146 156 150 142 161 235 248 287 260 218 230 187 181 195 150 134 114 105 86 74 68 58 59 44 45 40 28 27 10 16 19 5 2 3 359 354 351 347 343 347 351 343 345 355 357 352 352 352 350 347 340 335 333 331 330 329 326 325 326 328 329 327 326 327 327 326 325 322
103 103 61 340 344 352 303 166 137 117 125 136 129 119 116 121 126 119 118 122 127 128 94 155 338 356 332 311 204 194 151 149 150 139 134 109 89 83 60 62 42 33 39 26 21 7 347 356 354 349 352 350 348 343 338 337 337 342 334 334 348 351 347 347 348 347 342 333 330 330 328 326 324 322 321 321 323 324 323 322 321 321 322 322 321
101 102 307 320 355 71 115 118 114 111 109 113 111 106 100 98 103 103 88 78 112 123 99 93 64 42 30 19 10 352 56 159 167 145 141 134 121 112 76 58 39 350 36 29 19 9 349 342 340 339 344 340 339 336 331 333 329 330 322 323 340 345 343 343 343 341 336 330 329 327 324 322 320 319 319 319 319 318 318 319 318 317 317 318 318
83 3 296 304 81 103 113 110 111 110 103 103 100 98 96 88 84 91 97 89 107 125 111 105 83 59 47 47 53 23 26 128 166 138 152 159 148 133 117 99 59 267 312 358 8 1 347 345 331 326 336 328 328 329 324 326 324 323 317 315 330 340 341 340 338 337 334 332 330 325 320 320 318 317 317 316 315 313 314 315 316 315 313 313 315
69 177 155 130 120 115 113 107 108 107 102 99 93 93 93 86 82 84 89 83 82 109 104 96 92 75 57 51 53 47 43 34 13 338 231 176 165 162 161 151 141 189 223 318 345 345 332 344 335 329 336 325 324 326 322 323 319 318 312 307 322 334 338 337 335 334 335 335 334 328 323 320 318 316 315 314 312 310 310 311 312 312 311 310 310
153 152 139 133 124 116 113 106 104 104 102 98 92 91 89 86 85 83 87 83 72 83 92 83 79 70 57 53 49 50 57 45 22 349 338 286 165 170 176 176 184 181 178 274 305 314 316 330 321 323 335 325 322 325 322 322 319 316 308 306 318 328 333 333 331 330 332 333 334 333 329 325 321 317 315 313 311 309 308 308 308 308 308 307 307
154 153 147 148 132 119 118 108 102 101 100 98 94 92 89 87 87 83 85 87 79 77 79 76 71 55 42 47 53 54 64 54 35 18 7 10 65 139 182 195 193 176 169 220 273 274 282 317 311 313 330 324 322 325 321 319 318 313 307 310 318 323 325 325 323 324 326 327 328 329 329 327 322 317 315 314 312 311 309 308 307 305 304 303 303
160 159 153 155 141 122 119 112 106 102 100 99 96 94 94 92 89 85 82 83 83 80 75 74 74 67 57 55 56 50 54 57 36 25 26 17 11 87 174 276 242 170 171 197 244 255 271 319 323 324 328 324 324 323 319 316 316 312 308 312 318 320 322 321 319 320 321 321 321 322 324 322 318 315 314 314 313 312 310 308 307 305 303 302 300
165 164 158 159 151 132 123 118 110 105 103 102 101 100 100 96 91 87 84 81 82 81 78 76 75 73 66 62 64 59 53 52 41 33 32 15 350 1 28 347 324 81 167 188 202 215 333 344 336 336 331 328 329 323 319 316 315 312 309 312 318 320 324 323 320 320 318 317 317 317 318 317 313 312 312 311 312 311 310 309 307 306 305 303 300
168 171 166 160 157 144 131 123 115 110 107 104 104 104 101 99 94 90 88 84 82 83 81 76 74 77 76 69 67 64 55 48 44 41 35 27 20 9 9 2 334 341 325 174 173 163 13 357 342 339 335 332 331 324 321 318 315 312 309 313 319 321 324 323 321 319 317 317 316 315 316 314 311 309 308 309 309 309 309 309 307 306 305 303 301
172 172 168 163 159 149 133 125 120 114 111 108 107 105 102 101 98 95 93 87 85 85 82 79 79 79 81 76 68 61 54 46 45 45 39 38 35 14 354 338 290 334 339 46 74 41 4 354 345 341 338 334 331 326 322 319 315 313 312 315 319 321 322 319 318 318 317 317 315 313 313 312 311 310 310 309 308 309 310 309 307 306 304 302 300
172 170 166 165 158 147 133 126 123 118 115 114 110 107 105 104 102 97 94 90 89 89 87 86 85 81 79 77 70 61 52 45 45 46 42 40 36 18 3 348 302 14 356 357 31 29 4 351 343 342 340 334 330 326 322 320 316 315 317 318 317 319 319 317 316 317 316 315 313 312 312 313 312 311 310 309 309 310 309 306 305 304 301 300 298
168 166 164 164 156 146 136 130 127 123 119 118 115 111 109 107 105 101 97 96 94 95 96 91 86 82 78 75 72 63 52 46 45 44 41 38 32 23 17 11 357 359 359 351 7 12 2 351 338 337 340 333 328 326 322 321 318 318 320 319 316 316 317 316 315 315 315 314 313 313 313 313 312 310 309 309 309 306 301 300 301 300 299 298 297
169 167 164 162 155 145 139 134 130 127 124 121 118 116 114 111 110 107 104 105 102 100 100 95 88 84 79 77 77 67 55 48 46 41 36 35 32 24 23 22 8 355 354 352 349 346 348 346 335 331 333 331 327 325 322 321 320 321 320 318 316 315 315 314 314 314 315 314 313 314 314 314 314 312 310 310 308 303 299 301 303 301 299 298 296
166 167 165 159 153 146 140 138 134 131 127 125 124 120 118 116 113 112 112 113 110 104 99 95 91 87 85 82 79 73 61 51 46 39 31 28 29 24 21 21 15 8 352 335 334 341 339 334 330 327 326 326 325 322 321 319 319 321 319 317 316 315 313 313 314 315 315 313 313 316 317 316 315 313 310 309 308 306 306 306 305 301 297 296 295
164 164 163 158 153 149 145 142 138 135 132 130 130 127 123 121 119 119 121 120 116 108 101 97 94 92 93 88 82 78 66 54 46 36 32 26 22 21 17 13 13 6 347 328 318 329 331 325 322 322 320 321 321 320 319 319 319 320 318 316 316 315 314 314 314 314 315 314 314 316 317 316 316 315 312 310 309 309 309 307 303 299 295 295 295
164 162 161 159 155 152 149 146 143 140 138 136 135 132 129 127 126 127 128 125 119 112 106 102 101 101 97 89 82 73 61 58 46 32 32 25 16 14 8 2 1 353 339 326 312 312 320 320 317 318 318 317 317 318 318 318 318 319 318 316 316 316 315 314 314 315 316 315 314 316 316 316 316 315 312 311 310 310 308 305 302 300 298 297 296
163 162 162 159 157 155 152 150 147 144 143 142 140 138 136 134 134 132 131 128 121 116 113 108 104 103 97 90 82 69 54 48 39 30 27 14 8 8 358 351 348 344 334 324 314 310 313 317 316 315 316 317 316 317 318 318 319 320 319 318 317 317 316 315 315 316 316 315 316 317 317 316 316 316 316 315 313 311 309 306 303 301 300 297 295
165 165 162 159 158 155 153 152 150 148 147 145 144 145 144 141 138 136 134 131 124 120 118 114 108 104 100 94 85 72 55 42 34 31 22 7 6 6 356 345 337 334 329 320 313 308 309 314 315 314 316 318 315 316 319 319 320 321 321 319 319 317 316 316 315 315 315 315 316 317 318 320 321 321 320 319 317 315 311 308 307 304 301 298 295
165 165 162 160 159 157 156 154 151 151 149 148 149 150 149 145 142 141 138 133 128 125 123 118 115 113 107 101 93 76 54 42 32 30 20 4 0 360 350 341 330 324 324 316 307 305 306 309 313 315 318 319 316 318 321 320 320 322 321 319 319 318 317 316 315 314 314 315 316 319 322 324 323 321 320 319 317 315 313 311 310 307 304 300 296
164 164 160 161 161 159 158 157 155 155 152 152 154 153 151 150 147 146 143 138 133 130 126 122 123 122 116 110 104 81 57 40 26 27 20 5 357 354 346 338 329 324 321 313 305 305 305 306 311 314 317 318 319 321 322 322 323 323 321 319 319 318 317 317 316 315 315 316 317 321 325 324 322 320 320 318 317 316 314 312 311 308 305 302 298
163 160 161 164 164 162 162 160 159 158 156 155 156 154 154 153 152 150 147 143 138 131 127 127 126 127 124 118 107 79 53 38 27 21 11 1 352 348 344 336 330 326 320 314 310 308 306 307 310 314 317 319 322 323 325 327 326 323 321 321 319 318 318 318 317 317 318 319 320 324 327 325 322 320 320 318 317 315 313 311 310 308 307 305 301
160 159 164 166 165 165 165 164 162 160 158 157 157 157 156 155 155 153 149 146 141 136 134 134 130 129 128 124 112 78 48 36 32 20 6 360 352 345 341 334 330 327 320 316 314 312 311 311 312 316 320 324 324 324 328 330 327 324 324 323 319 318 319 319 319 320 320 320 323 328 329 327 324 323 322 319 317 315 314 313 312 311 309 306 303
159 161 164 164 166 168 166 165 164 161 160 159 159 159 159 159 158 156 154 150 147 145 144 142 138 135 132 130 125 90 57 41 33 20 8 359 349 344 343 336 330 328 324 321 319 317 317 316 317 320 323 326 326 327 329 329 325 325 327 325 321 320 321 321 320 321 322 321 325 329 330 328 326 325 323 322 319 317 316 314 313 312 309 305 302
161 161 161 160 162 166 165 166 165 164 165 163 162 162 162 162 161 159 158 156 155 154 154 151 146 146 148 143 129 106 78 72 66 44 25 13 358 345 341 337 332 330 327 324 323 322 323 322 322 325 326 326 328 329 329 329 328 328 328 324 320 319 322 322 320 321 322 323 328 331 332 332 329 326 325 323 321 319 317 314 312 311 310 308 306
157 156 156 155 160 164 164 164 165 166 170 169 166 166 166 165 164 164 163 162 161 160 162 164 164 167 164 152 143 136 112 94 76 49 29 18 8 352 340 334 334 334 331 328 329 329 328 326 326 328 329 327 329 331 330 330 331 328 325 323 319 318 320 320 319 321 323 326 331 334 335 336 332 326 325 324 322 320 318 315 312 311 311 312 310
152 153 152 152 160 164 160 163 167 168 179 187 178 173 172 169 166 167 168 168 167 168 171 172 177 185 184 174 181 192 52 37 3 3 4 358 355 352 344 333 330 335 335 334 335 335 331 328 328 330 328 326 328 329 327 328 329 326 324 324 320 320 322 320 319 323 326 329 333 335 335 335 333 327 324 323 322 320 318 314 312 310 309 309 308
156 160 160 160 168 170 166 172 173 171 183 198 190 181 175 169 166 169 173 173 174 176 180 183 185 193 194 186 200 257 2 345 311 320 334 334 334 336 335 328 318 317 328 331 332 335 333 327 325 327 326 324 325 326 326 328 329 326 324 322 321 322 323 321 319 322 327 331 335 336 333 333 333 329 324 321 320 319 316 312 311 311 310 309 308
160 165 168 169 174 176 174 175 175 175 187 199 196 188 181 173 168 168 172 177 179 182 187 195 195 191 189 190 203 223 238 302 308 307 318 322 321 320 322 321 308 296 305 314 315 325 330 324 322 323 323 323 322 323 327 328 325 323 321 320 320 320 320 318 316 317 324 332 336 335 333 333 334 331 326 322 321 319 315 313 313 313 312 310 308
158 163 168 170 173 176 175 176 179 182 190 202 202 194 186 181 174 168 170 177 183 192 196 199 199 185 183 196 203 206 229 282 337 325 320 320 317 314 315 314 304 291 295 302 305 321 328 320 317 318 320 321 320 320 323 323 321 320 320 319 319 318 316 315 314 314 321 332 338 334 326 327 332 333 329 325 325 322 318 317 316 314 313 311 307
165 165 168 170 172 175 177 182 186 185 190 203 206 196 190 187 180 174 175 185 191 200 200 194 196 189 191 207 208 201 216 235 289 333 332 324 317 313 311 311 308 301 298 294 299 322 325 315 311 313 314 315 315 313 316 318 315 315 316 316 315 314 313 312 313 314 320 330 336 331 317 320 331 337 333 329 328 326 324 321 319 317 315 314 310
173 175 177 176 178 182 185 188 188 186 193 203 201 193 190 189 185 184 199 215 200 198 195 192 198 201 201 208 209 207 210 218 258 309 334 335 324 314 312 315 317 314 304 289 293 311 316 311 307 308 308 311 313 314 317 318 315 314 314 310 309 312 313 314 315 315 320 329 332 327 313 320 334 340 335 330 327 326 326 327 325 322 317 316 314
173 180 183 182 184 188 191 192 188 185 192 199 196 189 186 186 188 191 212 224 199 197 202 202 203 203 201 201 208 218 213 220 264 303 341 350 335 318 318 321 319 317 314 309 312 316 317 315 314 314 316 318 320 321 324 324 321 320 317 310 311 318 318 318 319 319 324 331 332 330 323 324 336 341 334 330 327 323 322 326 329 327 322 318 316
175 180 183 185 188 190 191 192 189 184 187 194 193 188 185 185 187 193 211 215 204 207 207 204 205 201 198 201 206 211 208 223 262 305 349 357 342 323 322 325 321 320 324 324 322 319 318 318 319 321 321 321 321 323 325 326 324 323 319 314 319 325 322 320 322 322 326 330 334 336 332 327 339 343 333 327 327 322 320 325 331 332 329 324 320
177 180 183 185 187 188 189 190 189 184 185 190 190 188 189 189 189 194 208 209 205 208 203 201 205 201 202 210 208 199 209 234 253 307 356 358 343 326 324 325 321 324 330 328 322 320 321 322 322 322 321 320 321 324 324 324 325 326 324 320 323 325 322 323 324 321 323 329 334 337 335 333 343 346 336 324 324 325 325 328 331 334 334 329 324
174 177 181 183 181 182 185 187 184 180 182 187 189 191 194 195 194 196 208 213 206 204 201 200 204 202 204 215 212 200 202 222 240 312 350 350 341 327 323 322 323 328 329 325 323 320 318 319 322 324 325 325 326 325 325 326 328 330 329 325 325 325 323 323 324 322 323 329 336 338 336 337 345 347 341 331 322 326 330 330 331 335 336 333 327